Startpagina
METAR-TAF:

METAR-TAF

Vliegvelden :

Productieplatform

Awg-1, Nederland

breedte: 53-29-30N, lengte: 5-56-30E, hoogte: 33 m

Actueel weer

Dit bericht is 41 minuten geleden gemaakt, om 07:25 UTC
Wind 19 kt uit het zuidzuidwesten
Temperatuur 11°C
Vochtigheid 87%
Druk 1020 hPa
Zicht 10 km of meer

METAR: EHMA 180725Z AUTO 20019KT 9999 NSC 11/09 Q1020

Tijdstip: 10:06 (08:06 UTC)


TAF: ontbreekt

Waarnemingen en weersverwachtingen van meer dan 4000 vliegvelden (METAR en TAF).

De beschikbare stations zijn de gele en rode punten op de kaart.

Ga met uw muis naar het station om de naam te zien.

Klik dan om waarnemingen en weersverwachtingen te zien.

kaart wijzigen: klik op de groene knoppen met een zwart kruis om in te zoomen, op de groene knop met een streepje om uit te zoomen of op de groene pijlen voor aangrenzende kaarten.


METAR-TAF: